x

South Santa Rosa Is. Ca (46069) Wave Buoy

7:50 - Mon 26th Jan 2015 All times are PST. -8 hours from GMT.

  • Sig Wave height 6.9ft
  • Peak Period 13s
  • Average Period 11s
  • Wind
    2mph, 4mph gusts
  • Sea Temp 61°f
  • Air Temp 62°f
  • Sea Pressure 1015mb
  • South Santa Rosa Is. Ca
  • South Santa Rosa Is. Ca

More Historic Weather Station data

Upgrade to MSW Pro to gain access to the past 30 days of data for over 8000 Wavebouys and Weather Stations around the globe.

Join Pro

Comparision Forecast

View Surf forecast
   
lun. 01/26 7:50 7ft 13s 11s 2 4 mph 1015mb 61f 62f
6:50 6ft 14s 11s 4
mph
1014.5mb 61f 62f
5:50 6.5ft 14s 12s 2 4 mph 1014.1mb 61f 63f
4:50 6ft 14s 11s 2
mph
1014mb 61f 62f
3:50 6.5ft 14s 11s 4 7 mph 1013.6mb 61f 62f
2:50 6.5ft 14s 11s 4 7 mph 1015.1mb 61f 62f
1:50 6.5ft 15s 11s 4 7 mph 1015.4mb 61f 62f
12:50 7.5ft 15s 12s  -  2 mph 1015.4mb 61f 62f
dim. 01/25 11:50 7ft 12s 11s 2 4 mph 1015.8mb 61f 64f
10:50 6.5ft 15s 11s  -  2 mph 1016.4mb 61f 63f
9:50 7ft 15s 11s 2 4 mph 1016.4mb 62f 62f
8:50 7ft 14s 11s 4 7 mph 1016.2mb 61f 63f
7:50 6.5ft 14s 10s 2 4 mph 1015.7mb 62f 63f
6:50 8.5ft 15s 12s 9 11 mph 1014.8mb 62f 63f
5:50 7.5ft 15s 11s 2 4 mph 1014.8mb 62f 65f
4:50 7ft 14s 11s 4 7 mph 1014.6mb 62f 64f
3:50 7ft 15s 11s 4
mph
1013.8mb 62f 64f
2:50 8ft 15s 11s 4 7 mph 1013.8mb 62f 64f
1:50 8ft 16s 11s 4 7 mph 1014mb 62f 65f
12:50 7ft 15s 10s 7 9 mph 1014.8mb 62f 64f
11:50 7.5ft 16s 10s 2 4 mph 1015.9mb 61f 64f
10:50 8.5ft 15s 10s 9 11 mph 1016.5mb 61f 65f
9:50 8.5ft 15s 11s 11 13 mph 1016.7mb 61f 66f
8:50 8.5ft 15s 11s 9 11 mph 1016.4mb 61f 65f
7:50 9ft 16s 11s 9 11 mph 1015.9mb 61f 65f
6:50 9.5ft 15s 11s 11 13 mph 1015.9mb 61f 64f
5:50 8ft 15s 11s 11 16 mph 1015.7mb 60f 65f
4:50 9ft 15s 12s 7 9 mph 1015.7mb 60f 64f
3:50 8ft 13s 11s 4 7 mph 1016.1mb 60f 65f
2:50 8ft 15s 11s 7 9 mph 1016.5mb 60f 64f
1:50 9ft 16s 11s 9 11 mph 1016.4mb 60f 63f
12:50 9ft 16s 11s 7 9 mph 1016.5mb 60f 64f
sam. 01/24 11:50 8ft 16s 10s 11 13 mph 1017mb 61f 64f
10:50 8.5ft 16s 10s 13 16 mph 1017.4mb 61f 63f
9:50 7ft 15s 9s 11 13 mph 1017.5mb 61f 63f
8:50 9ft 16s 10s 11 13 mph 1017mb 61f 63f
7:50 10ft 16s 11s 9 11 mph 1016.7mb 61f 62f
6:50 10ft 16s 10s 9 11 mph 1016.5mb 61f 63f
5:50 9ft 15s 9s 11 16 mph 1015.8mb 61f 63f
4:50 10ft 16s 10s 11 13 mph 1015.9mb 61f 63f
3:50 10ft 17s 9s 9 13 mph 1016.2mb 61f 63f
2:50 9.5ft 16s 9s 9 13 mph 1016.2mb 61f 67f
1:50 9ft 16s 8s 18 20 mph 1015.7mb 61f 67f
12:50 8.5ft 17s 8s 18 22 mph 1016.5mb 61f 67f
11:50 9ft 17s 9s 18 22 mph 1017.7mb 61f 66f
10:50 8.5ft 17s 9s 16 20 mph 1018.9mb 61f 67f
9:50 10ft 17s 11s 4 7 mph 1019.2mb 61f 64f
8:50 9ft 17s 10s 7 9 mph 1019mb 60f 63f
7:50 9.5ft 17s 12s 4 7 mph 1019.2mb 60f 62f
6:50 10ft 17s 12s 13 16 mph 1018.2mb 60f 62f
5:50 9ft 17s 12s 9 13 mph 1018.6mb 60f 62f
4:50 8ft 17s 11s 4
mph
1018.5mb 61f 63f
3:50 7.5ft 19s 11s 11 13 mph 1018.6mb 60f 63f
2:50 8.5ft 17s 12s 9 11 mph 1019mb 61f 62f
1:50 8ft 17s 11s 11 16 mph 1019.4mb 61f 60f
12:50 8.5ft 19s 12s 13 16 mph 1019.8mb 61f 60f
ven. 01/23 11:50 8ft 19s 12s 11 13 mph 1019.9mb 61f 60f
10:50 9.5ft 19s 13s 7 9 mph 1021mb 61f 60f
9:50 8ft 19s 11s 13 16 mph 1020.5mb 61f 60f
8:50 7ft 19s 10s 11 13 mph 1021.1mb 61f 60f
7:50 7ft 19s 10s 9 11 mph 1020.8mb 61f 60f
6:50 8ft 19s 12s 11 16 mph 1021.1mb 61f 60f
5:50 6ft 19s 10s 11 16 mph 1020.9mb 61f 60f
4:50 5.5ft 19s 10s 11 13 mph 1020.9mb 62f 60f
3:50 6ft 19s 11s 9 11 mph 1020.8mb 61f 61f
2:50 6ft 21s 12s 9 11 mph 1021.2mb 61f 61f
1:50 5.5ft 21s 11s 11 13 mph 1021.5mb 61f 60f
12:50 5ft 21s 10s 7 9 mph 1022.1mb 61f 60f
11:50 6ft 21s 10s 7 9 mph 1023.1mb 61f 60f
10:50 6ft 15s 9s 7 9 mph 1024.2mb 61f 60f
9:50 5ft 21s 9s 7 9 mph 1024.1mb 61f 60f
8:50 6ft 21s 10s 9
mph
1023.7mb 60f 60f
7:50 4.5ft 15s 8s 7
mph
1023.4mb 60f 59f
6:50 4.5ft 21s 8s 7
mph
1023.2mb 60f 59f
5:50 4.5ft 16s 8s 7
mph
1023.1mb 60f 59f
4:50 4.5ft 21s 9s 7 9 mph 1022.8mb 60f 59f
3:50 4.5ft 11s 8s 9 11 mph 1023mb 60f 59f
2:50 4ft 11s 8s 13 16 mph 1023.4mb 60f 59f
1:50 3.5ft 11s 8s 9 11 mph 1023.4mb 60f 60f
12:50 3.5ft 11s 8s 7 9 mph 1023.4mb 60f 60f
jeu. 01/22 11:50 4ft 16s 9s 7
mph
1023.2mb 60f 60f
10:50 3.5ft 11s 8s 9
mph
1023.6mb 61f 60f
9:50 3.5ft 12s 7s 4 7 mph 1023.1mb 61f 61f
8:50 4.5ft 12s 7s  -  2 mph 1023.2mb 61f 61f
7:50 4.5ft 11s 7s 4
mph
1023.1mb 61f 62f
6:50 4.5ft 11s 7s 9 11 mph 1023.2mb 61f 61f
5:50 4.5ft 11s 7s 9 11 mph 1022.7mb 61f 61f